Regional Weather Roundup
Issued by NWS

Home | Current Version | Previous Version | Text Only | Print | Product List | Glossary On
Versions: 1 2 3 4 5 6 7 8 9 10 11 12 13 14 15 16 17 18 19 20 21 22 23 24 25 26 27 28 29 30 31 32 33 34 35 36 37 38 39 40 41 42 43 44 45 46 47 48 49 50
301
ASUS43 KMKX 312211
RWRWI

WISCONSIN REGIONAL WEATHER ROUNDUP
NATIONAL WEATHER SERVICE MILWAUKEE/SULLIVAN WI
500 PM CDT TUE MAY 31 2016

NOTE: "FAIR" INDICATES FEW OR NO CLOUDS BELOW 12,000 FEET WITH NO
SIGNIFICANT WEATHER AND/OR OBSTRUCTIONS TO VISIBILITY.

WIZ001-002-006>008-014>016-023>028-312300-
NORTHWEST WISCONSIN

CITY           SKY/WX    TMP DP  RH WIND       PRES   REMARKS
SUPERIOR ARPT  CLOUDY    43  42  95 E15G26    29.91S
ASHLAND        LGT RAIN  50  48  93 NE8       29.89S
HAYWARD        CLOUDY    69  63  81 SE6       29.86R
SIREN          CLOUDY    71  60  67 SW10      29.84R
CUMBERLAND     LGT RAIN  66  61  82 SW7       29.84F
RICE LAKE      LGT RAIN  65  61  86 SE7       29.86F
CHETEK         RAIN      63  61  93 S6        29.86S
LADYSMITH      LGT RAIN  63  58  83 N3        29.90R
EAU CLAIRE     RAIN      62  60  93 NW3       29.85S FOG
MENOMONIE      RAIN      64  63  99 E5        29.87R
NEW RICHMOND   LGT RAIN  67  61  81 SW8       29.85F
OSCEOLA        CLOUDY    69  62  77 S7        29.87S
$$

WIZ003>005-009-010-017-018-312300-
NORTH CENTRAL WISCONSIN

CITY           SKY/WX    TMP DP  RH WIND       PRES   REMARKS
MANITOWISH WTR CLOUDY    69  55  60 SE13G23   29.91R
ARBOR VITAE    MOSUNNY   72  56  57 S15G23    29.93R
WOODRUFF       MOSUNNY   72  56  57 S15G23    29.93R
RHINELANDER    CLOUDY    70  54  56 SE12G26   29.94F
EAGLE RIVER      N/A     71  50  47 SE13G20   29.94S
LAND O LAKES   CLOUDY    71  49  46 SE14G22   29.95R
PHILLIPS       CLOUDY    69  58  67 SE17G23   29.89R
TOMAHAWK       PTSUNNY   70  57  63 SE10G17   29.92S
MEDFORD        CLOUDY    69  58  69 SE16G28   29.90R
MERRILL        CLOUDY    70  61  73 SE14G22   29.94R
$$

WIZ029-030-035-036-043>047-312300-
CENTRAL WISCONSIN

CITY           SKY/WX    TMP DP  RH WIND       PRES   REMARKS
WAUSAU         CLOUDY    70  57  63 SE14G22   29.92F
MOSINEE        MOSUNNY   66  61  82 SE15      29.94F
MARSHFIELD     CLOUDY    70  58  65 SE13G21   29.90S
STEVENS POINT  CLOUDY    68  57  68 SE12      29.94F
WAUPACA        DRIZZLE   70  61  72 SE12      29.95S
WAUTOMA        PTSUNNY  N/A N/A N/A SE10      29.95F
WISC RAPIDS    CLOUDY    73  58  59 SE16G22   29.92F
CAMP DOUGLAS   PTSUNNY   72  68  88 SE12G20   29.89F
$$

WIZ011>013-019>022-031-037>040-048>050-312300-
NORTHEAST WISCONSIN

CITY           SKY/WX    TMP DP  RH WIND       PRES   REMARKS
ANTIGO         CLOUDY    64  55  71 SE15      29.97F
SHAWANO        CLOUDY    70  56  60 SE13G18   29.97F
OCONTO         CLOUDY    65  52  63 E7        30.00F
STURGEON BAY   SUNNY     67  51  56 E7        30.02F
GREEN BAY      CLOUDY    68  59  73 E6        29.99F
MANITOWOC      CLOUDY    63  52  67 N3        30.01F
APPLETON       PTSUNNY   66  55  68 SE14      29.97F
CLINTONVILLE   LGT RAIN  68  54  60 SE14      29.95F
OSHKOSH        CLOUDY    67  59  75 SE9       29.96F
$$

WIZ032>034-041-042-053>061-312300-
SOUTHWEST WISCONSIN

CITY           SKY/WX    TMP DP  RH WIND       PRES   REMARKS
LA CROSSE      LGT RAIN  70  64  81 S8        29.86R
SPARTA         CLOUDY    73  60  63 S12       29.88F
VIROQUA        CLOUDY    71  61  71 S10       29.90S
BOSCOBEL       NOT AVBL
PRAIRIE DU CHI MOSUNNY   73  62  69 SE8G17    29.87F
PLATTEVILLE    CLOUDY    71  65  81 SE13      29.92F
$$

WIZ056-057-062-063-064-067-068-312300-
SOUTH CENTRAL WISCONSIN

CITY           SKY/WX    TMP DP  RH WIND       PRES   REMARKS
REEDSBURG      CLOUDY    73  63  70 SE8       29.92S
BARABOO/DELLS  CLOUDY    72  60  67 SE9       29.92F
LONE ROCK      PTSUNNY   73  62  68 SE8       29.92F
MINERAL POINT  PTSUNNY   70  64  83 SE9       29.93F
MADISON        CLOUDY    71  61  70 SE18      29.94F
MIDDLETON      CLOUDY    72  62  70 SE15      29.94F
WATERTOWN      LGT RAIN  65  65 100 SE13G20   29.98S
MONROE         MOSUNNY   70  61  73 SE15G23   29.95F
JANESVILLE     CLOUDY    70  64  83 SE13G18   29.97F
$$

WIZ051-052-058>065-066-070>072-312300-
SOUTHEAST WISCONSIN

CITY           SKY/WX    TMP DP  RH WIND       PRES   REMARKS
MILWAUKEE      LGT RAIN  69  60  73 W8        30.02R
WAUKESHA       RAIN      63  61  94 SW3       30.04R
MILWAUKEE/TIMM LGT RAIN  66  61  82 SW8       30.03R
RACINE         MOSUNNY   72  60  66 W8        30.03R
BURLINGTON     LGT RAIN  63  60  91 CALM      30.01F
KENOSHA        CLOUDY    68  59  73 W10       30.03F
FOND DU LAC    CLOUDY    67  62  84 SE10      29.97F
SHEBOYGAN      CLOUDY    66  55  67 NE5       30.00F
WEST BEND      LGT RAIN  63  59  88 S3        30.01S
JUNEAU         CLOUDY    66  62  86 SE14G20   29.99S
$$

LSZ147-162-312300-
LAKE SUPERIOR

STATION/POSITION TIME  TEMP    WIND        PRES    WAVE
                       AIR SEA DIR/SP/G            HT/PER
                 (UTC) (F)     (DEG/KT/KT) (MB)    (FT/S)
W MID LAKE BUOY  2050   41 38   40/ 16/ 19 1014.8F   3/ 4
DEVILS ISLAND    2200   43      70/ 18/ 21 1013.1R
SAXON HARBOR     2100          320/ 11/ 13 1011.5S
$$

LMZ867-665-643>646-312300-
LAKE MICHIGAN

STATION/POSITION TIME  TEMP    WIND        PRES    WAVE
                       AIR SEA DIR/SP/G            HT/PER
                 (UTC) (F)     (DEG/KT/KT) (MB)    (FT/S)
CHAMBERS ISLAND  2100   57      20/ 10/ 12 1016.9F
N MID LAKE BUOY  2050   51 48   30/  8/  8 1017.2F   1/ 4
NORTHPORT PIER   2100   59      80/  5/  7 1017.3F
SISTER BAY       2120   67     150/  9/ 13   N/A
ALGOMA LAKESHORE 2102           60/  9/ 12   N/A
KEWAUNEE LAKESHO 2100   55      20/  5/ 10 1016.7F
SHEBOYGAN LAKESH 2200   52     360/  8/  8 1016.6F
PORT WASHINGTON  2100   55      40/  6/  7 1016.9
S MID LAKE BUOY  2050   61 56   80/  6/  6 1014.5F   0
KENOSHA   LAKESH 2200   70     280/ 11/ 17 1016.3R
$$

TC  - TEMPERATURE IN CELSIUS
VSB - VISIBILITY IN STATUTE MILES
WCI - WIND CHILL INDEX
HX  - HEAT INDEX





USA.gov is the U.S. government's official web portal to all federal, state and local government web resources and services.